[[{"header":{"parameterUnit":"m.s-1","parameterCategory":1,"la1":30.2991,"la2":30.254,"lo1":-89.0895,"lo2":-89.0444,"dy":0.0017,"dx":0.0017,"nx":28,"ny":28,"refTime":"2023-10-12T21:00:00:Z","depth":0,"parameterNumber":2,"parameterNumberName":"U-component_of_WINDS"},"data":[0,0,0,0,0,0,0,0,0,0,0,0,0,0,0,0,0,0,0,0,0,0,0,0,0,0,0,0,0,0,0,0,0,0,0,0,0,0,0,0,0,0,0,0,0,0,0,0,0,0,0,0,0,0,0,0,0,0,-2.5078,-2.5078,0,-2.5085,-2.5085,-2.5085,-2.5001,-2.4998,-2.4996,-2.4994,-2.5001,-2.5003,-2.5005,0,0,0,0,0,0,0,0,0,0,0,0,0,-2.4993,-2.4995,-2.5078,-2.5078,-2.5078,-2.5085,-2.5085,-2.5085,-2.5001,-2.4998,-2.4995,-2.4993,-2.5,-2.5003,-2.5006,0,0,0,0,0,0,0,0,0,0,0,0,0,-2.5018,-2.4995,-2.5078,-2.5037,-2.5034,-2.5085,-2.5085,-2.5085,-2.5002,-2.4998,-2.4995,-2.4992,-2.4999,-2.5003,-2.5006,-2.5097,0,0,-2.5017,-2.5018,0,0,0,0,0,0,0,0,-2.5016,-2.5021,-2.5043,-2.504,-2.5036,-2.5038,-2.5057,-2.5089,-2.5003,-2.5014,-2.4994,-2.499,-2.5016,-2.5018,-2.5027,-2.5097,-2.5097,-2.5017,-2.5019,-2.5021,-2.5022,0,0,0,0,0,0,0,-2.5015,-2.502,-2.5081,-2.5044,-2.5039,-2.5018,-2.5018,-2.5063,-2.5034,-2.5013,-2.5006,-2.5008,-2.5014,-2.5024,-2.5026,-2.5097,-2.5017,-2.502,-2.5022,-2.5024,-2.524,-2.5244,0,0,0,0,0,0,-2.5019,-2.5019,-2.5081,-2.5081,-2.5018,-2.5023,-2.5023,-2.5041,-2.5034,-2.5029,-2.5011,-2.5004,-2.5019,-2.5022,-2.5026,-2.513,-2.5021,-2.5024,-2.5026,-2.5237,-2.5241,-2.5245,0,0,0,0,0,0,-2.5017,-2.5025,-2.508,-2.5048,-2.5054,-2.5028,-2.505,-2.5043,-2.5053,-2.5033,-2.5027,-2.5027,-2.5017,-2.5021,-2.5079,-2.513,-2.5025,-2.5029,-2.5233,-2.5238,-2.5243,-2.5341,0,0,0,0,0,0,-2.5015,-2.5025,-2.5059,-2.505,-2.5056,-2.5134,-2.5053,-2.5046,-2.5059,-2.505,-2.5046,-2.5042,-2.5014,-2.5075,-2.5083,-2.5133,-2.5031,-2.5228,-2.5235,-2.5242,-2.5333,-2.5349,-2.5363,0,0,0,0,0,-2.5012,-2.5087,-2.5061,-2.5069,-2.5098,-2.5137,-2.514,-2.5107,-2.5064,-2.5098,-2.5084,-2.5042,-2.5123,-2.5081,-2.509,-2.5141,-2.5225,-2.5233,-2.5241,-2.5326,-2.5346,-2.5362,0,0,0,0,0,0,-2.5103,-2.5085,-2.5056,-2.513,-2.5136,-2.5122,-2.5164,-2.5129,-2.5147,-2.5138,-2.5097,-2.5096,-2.5161,-2.5157,-2.5111,-2.5228,-2.5166,-2.5176,-2.5228,-2.5246,-2.5261,-2.526,-2.5034,0,0,0,0,0,-2.5132,-2.5164,-2.5147,-2.5213,-2.5218,-2.5191,-2.5206,-2.518,-2.5184,-2.5186,-2.5177,-2.5183,-2.5209,-2.5228,-2.5251,-2.5332,-2.5329,-2.5372,-2.5387,-2.5399,-2.5408,-2.5449,-2.5468,-2.5272,-2.5272,-2.5272,0,0,-2.5191,-2.5185,-2.5208,-2.5232,-2.5233,-2.5267,-2.5193,-2.5233,-2.5258,-2.5192,-2.5246,-2.524,-2.5243,-2.5313,-2.5343,-2.5312,-2.5462,-2.541,-2.542,-2.5422,-2.546,-2.5478,-2.5495,-2.5278,-2.5277,-2.5276,0,0,-2.5316,-2.5316,-2.537,-2.5373,-2.5376,-2.5357,-2.5371,-2.5363,-2.5356,-2.5409,-2.536,-2.5389,-2.5436,-2.544,-2.5449,-2.5575,-2.5536,-2.5584,-2.5661,-2.5702,-2.5717,-2.5731,-2.5775,-2.5791,-2.5593,-2.5594,-2.5594,0,-2.539,-2.544,-2.5403,-2.5446,-2.5457,-2.5399,-2.5454,-2.5458,-2.5469,-2.5478,-2.5442,-2.5499,-2.5497,-2.5566,-2.5597,-2.5606,-2.562,-2.5584,-2.5718,-2.5731,-2.5743,-2.5784,-2.5801,-2.5599,-2.5599,-2.5598,-2.5598,0,-2.5529,-2.5565,-2.5609,-2.5619,-2.5636,-2.5685,-2.5655,-2.5676,-2.5649,-2.5634,-2.5689,-2.5684,-2.5705,-2.572,-2.5694,-2.5786,-2.5766,-2.5725,-2.5662,-2.5768,-2.5806,-2.5822,-2.5607,-2.5605,-2.5604,-2.5602,0,0,-2.5712,-2.5701,-2.5718,-2.5721,-2.572,-2.5746,-2.5792,-2.5812,-2.583,-2.584,-2.5876,-2.5917,-2.5879,-2.5889,-2.5863,-2.5899,-2.5998,-2.5853,-2.5853,-2.5879,-2.6097,-2.6126,-2.6145,-2.5972,-2.5975,-2.5978,-2.6096,0,-2.5833,-2.591,-2.5878,-2.5958,-2.599,-2.5935,-2.5975,-2.5978,-2.5965,-2.599,-2.5976,-2.6005,-2.5954,-2.5959,-2.5992,-2.5979,-2.6041,-2.597,-2.6006,-2.6007,-2.6005,-2.6165,-2.6197,-2.6309,-2.6111,-2.6113,-2.6115,0,-2.5984,-2.5999,-2.6082,-2.6073,-2.6085,-2.6122,-2.6137,-2.6162,-2.6164,-2.6152,-2.6163,-2.6129,-2.6172,-2.6111,-2.617,-2.6123,-2.6135,-2.6131,-2.6135,-2.6136,-2.6067,-2.617,-2.6344,-2.636,-2.6138,-2.6137,-2.6135,0,-2.6107,-2.6148,-2.6202,-2.6207,-2.6199,-2.6226,-2.6224,-2.6222,-2.6236,-2.625,-2.6258,-2.6277,-2.6288,-2.6303,-2.6275,-2.6232,-2.6338,-2.6274,-2.6329,-2.6329,-2.6352,-2.6351,-2.653,-2.6363,-2.6363,-2.6363,-2.6362,0,-2.6245,-2.6298,-2.6257,-2.6291,-2.6348,-2.6311,-2.6368,-2.636,-2.636,-2.639,-2.6345,-2.6374,-2.6336,-2.6362,-2.634,-2.6392,-2.6397,-2.6389,-2.6382,-2.6392,-2.6393,-2.6399,-2.639,-2.6367,-2.6366,-2.6365,-2.6364,0,-2.6392,-2.6367,-2.6422,-2.641,-2.6408,-2.6451,-2.644,-2.647,-2.6454,-2.6494,-2.6501,-2.6476,-2.6504,-2.6478,-2.6505,-2.649,-2.6559,-2.6542,-2.6558,-2.6553,-2.6609,-2.6603,-2.6796,-2.6819,-2.6639,-2.6641,-2.6643,0,-2.6481,-2.652,-2.6511,-2.6528,-2.6528,-2.6557,-2.657,-2.6535,-2.6551,-2.6557,-2.6586,-2.661,-2.6628,-2.6675,-2.666,-2.668,-2.6662,-2.6728,-2.6665,-2.6673,-2.6661,-2.6659,-2.6662,-2.6741,-2.6743,-2.6745,-2.6746,0,-2.664,-2.6626,-2.6647,-2.6664,-2.6681,-2.6693,-2.6702,-2.6718,-2.6682,-2.6702,-2.673,-2.6744,-2.6771,-2.6795,-2.681,-2.6808,-2.6771,-2.6767,-2.678,-2.679,-2.6797,-2.6793,-2.6592,-2.6762,-2.676,-2.6759,-2.6758,-2.6758,-2.676,-2.6791,-2.679,-2.6815,-2.6817,-2.6826,-2.6853,-2.6841,-2.6863,-2.6882,-2.686,-2.6894,-2.6894,-2.6911,-2.6913,-2.6939,-2.6911,-2.6931,-2.6936,-2.6941,-2.6948,-2.6794,-2.6942,-2.6941,-2.6941,-2.694,-2.694,0,-2.6916,-2.6912,-2.6936,-2.6948,-2.6967,-2.6931,-2.6938,-2.6957,-2.6987,-2.699,-2.7008,-2.704,-2.7063,-2.7049,-2.7069,-2.7092,-2.7076,-2.7099,-2.7096,-2.7096,-2.6973,-2.6959,-2.7112,-2.7111,-2.7111,-2.7111,-2.7111,-2.7111,-2.6999,-2.705,-2.7036,-2.7087,-2.7083,-2.7116,-2.7122,-2.713,-2.7132,-2.7169,-2.7188,-2.7179,-2.7175,-2.7194,-2.7214,-2.7209,-2.7218,-2.7247,-2.7236,-2.7121,-2.7104,-2.7088,-2.7074,-2.7249,-2.7249,-2.7356,-2.7357,-2.7358]},{"header":{"parameterUnit":"m.s-1","parameterCategory":1,"la1":30.2991,"la2":30.254,"lo1":-89.0895,"lo2":-89.0444,"dy":0.0017,"dx":0.0017,"nx":28,"ny":28,"refTime":"2023-10-12T21:00:00:Z","depth":0,"parameterNumber":3,"parameterNumberName":"V-component_of_WINDS"},"data":[0,0,0,0,0,0,0,0,0,0,0,0,0,0,0,0,0,0,0,0,0,0,0,0,0,0,0,0,0,0,0,0,0,0,0,0,0,0,0,0,0,0,0,0,0,0,0,0,0,0,0,0,0,0,0,0,0,0,-2.1647,-2.1648,0,-2.172,-2.1721,-2.1722,-2.1734,-2.1733,-2.1733,-2.1732,-2.1805,-2.1807,-2.181,0,0,0,0,0,0,0,0,0,0,0,0,0,-2.1515,-2.1517,-2.1647,-2.1648,-2.1649,-2.172,-2.1721,-2.1722,-2.1734,-2.1733,-2.1732,-2.1732,-2.1804,-2.1807,-2.181,0,0,0,0,0,0,0,0,0,0,0,0,0,-2.1579,-2.1518,-2.1647,-2.1664,-2.1666,-2.172,-2.1721,-2.1722,-2.1734,-2.1733,-2.1732,-2.1731,-2.1803,-2.1807,-2.181,-2.1852,0,0,-2.1822,-2.1824,0,0,0,0,0,0,0,0,-2.1575,-2.1583,-2.166,-2.1663,-2.1665,-2.1717,-2.1701,-2.1766,-2.1734,-2.1708,-2.1732,-2.1731,-2.1776,-2.1782,-2.1798,-2.1856,-2.1859,-2.1822,-2.1824,-2.1826,-2.1827,0,0,0,0,0,0,0,-2.1571,-2.158,-2.1676,-2.1661,-2.1664,-2.1666,-2.1674,-2.1713,-2.1746,-2.171,-2.1711,-2.172,-2.1777,-2.1794,-2.18,-2.186,-2.1822,-2.1825,-2.1828,-2.1829,-2.1954,-2.1955,0,0,0,0,0,0,-2.1563,-2.1577,-2.1674,-2.1678,-2.1617,-2.1669,-2.1678,-2.1701,-2.1746,-2.1752,-2.1721,-2.172,-2.1788,-2.1795,-2.1802,-2.1853,-2.1826,-2.183,-2.1832,-2.1953,-2.1955,-2.1956,0,0,0,0,0,0,-2.1561,-2.1572,-2.1671,-2.1628,-2.164,-2.1673,-2.1698,-2.1703,-2.172,-2.1754,-2.176,-2.1732,-2.1788,-2.1797,-2.184,-2.1856,-2.1831,-2.1835,-2.1952,-2.1954,-2.1955,-2.1957,0,0,0,0,0,0,-2.1557,-2.1571,-2.1588,-2.1628,-2.1643,-2.1708,-2.1699,-2.1705,-2.1727,-2.1727,-2.1766,-2.1772,-2.1788,-2.1834,-2.1843,-2.1861,-2.1838,-2.1951,-2.1953,-2.1955,-2.1955,-2.1958,-2.196,0,0,0,0,0,-2.1552,-2.1586,-2.1589,-2.1601,-2.1665,-2.1709,-2.1717,-2.1736,-2.1728,-2.1745,-2.1766,-2.177,-2.1853,-2.1838,-2.1849,-2.1868,-2.195,-2.1952,-2.1955,-2.1954,-2.1957,-2.196,0,0,0,0,0,0,-2.1546,-2.1591,-2.1595,-2.1643,-2.1672,-2.1711,-2.1733,-2.1739,-2.177,-2.1769,-2.179,-2.1798,-2.1839,-2.1858,-2.1841,-2.191,-2.1901,-2.1905,-2.1896,-2.19,-2.1903,-2.1897,-2.1841,0,0,0,0,0,-2.1551,-2.1584,-2.1621,-2.1659,-2.1673,-2.17,-2.172,-2.1732,-2.1762,-2.1775,-2.1799,-2.1828,-2.186,-2.1881,-2.1913,-2.1958,-2.1966,-2.1976,-2.1979,-2.1981,-2.1984,-2.2008,-2.2012,-2.1964,-2.1964,-2.1964,0,0,-2.156,-2.1588,-2.1608,-2.1658,-2.1682,-2.1715,-2.1711,-2.1746,-2.1769,-2.178,-2.1821,-2.184,-2.1874,-2.1917,-2.1938,-2.1934,-2.1999,-2.1984,-2.1985,-2.1987,-2.201,-2.2015,-2.2019,-2.1965,-2.1965,-2.1965,0,0,-2.1593,-2.1619,-2.1653,-2.1677,-2.1713,-2.173,-2.1738,-2.1776,-2.1789,-2.1832,-2.184,-2.1868,-2.1923,-2.1946,-2.1965,-2.2006,-2.201,-2.2015,-2.2029,-2.2052,-2.2055,-2.2059,-2.2072,-2.2077,-2.2019,-2.2019,-2.2019,0,-2.16,-2.165,-2.1669,-2.1703,-2.1725,-2.1736,-2.177,-2.1792,-2.1836,-2.185,-2.1845,-2.1914,-2.1938,-2.1986,-2.1996,-2.2011,-2.202,-2.2011,-2.2053,-2.2057,-2.2061,-2.2073,-2.2078,-2.2019,-2.2019,-2.2019,-2.2019,0,-2.1656,-2.169,-2.1713,-2.1756,-2.178,-2.1813,-2.1837,-2.1858,-2.1867,-2.1885,-2.1927,-2.1955,-2.1992,-2.2005,-2.2014,-2.2054,-2.205,-2.2049,-2.204,-2.2065,-2.2077,-2.2083,-2.202,-2.202,-2.202,-2.2019,0,0,-2.1688,-2.174,-2.1748,-2.1767,-2.1807,-2.1834,-2.1867,-2.1904,-2.1921,-2.1951,-2.1979,-2.2025,-2.2024,-2.2045,-2.2057,-2.2077,-2.2105,-2.2073,-2.2074,-2.2077,-2.215,-2.215,-2.2155,-2.2109,-2.211,-2.211,-2.2146,0,-2.1725,-2.1786,-2.1804,-2.1855,-2.1886,-2.1896,-2.1925,-2.1952,-2.1969,-2.1997,-2.2016,-2.2048,-2.2044,-2.2057,-2.2077,-2.2098,-2.212,-2.2095,-2.2133,-2.2134,-2.2124,-2.2162,-2.2162,-2.2195,-2.2151,-2.2152,-2.2153,0,-2.1777,-2.1807,-2.1861,-2.1896,-2.191,-2.1936,-2.197,-2.1997,-2.2027,-2.2038,-2.2061,-2.2071,-2.2105,-2.2094,-2.2141,-2.2123,-2.214,-2.2152,-2.2154,-2.2157,-2.2145,-2.2165,-2.2206,-2.221,-2.2161,-2.216,-2.216,0,-2.1793,-2.1848,-2.1887,-2.1903,-2.1945,-2.1963,-2.1981,-2.201,-2.2031,-2.206,-2.2073,-2.2106,-2.2124,-2.2149,-2.2166,-2.2157,-2.2211,-2.2202,-2.222,-2.2219,-2.223,-2.2229,-2.2273,-2.2242,-2.2242,-2.2242,-2.2242,0,-2.1832,-2.1865,-2.1895,-2.1919,-2.1955,-2.1974,-2.2009,-2.2028,-2.2053,-2.208,-2.2091,-2.2116,-2.2138,-2.2166,-2.218,-2.2215,-2.2223,-2.2232,-2.2235,-2.2231,-2.2229,-2.2241,-2.2239,-2.2243,-2.2243,-2.2243,-2.2242,0,-2.1857,-2.1879,-2.1922,-2.1958,-2.1967,-2.1992,-2.2022,-2.2045,-2.2063,-2.2096,-2.2105,-2.2132,-2.2164,-2.2185,-2.2226,-2.2235,-2.2274,-2.2277,-2.2264,-2.2265,-2.2282,-2.2279,-2.2334,-2.2342,-2.2306,-2.2307,-2.2307,0,-2.188,-2.1905,-2.1944,-2.1963,-2.1981,-2.2011,-2.2032,-2.2052,-2.2072,-2.2108,-2.2126,-2.216,-2.2187,-2.2239,-2.2261,-2.2292,-2.2295,-2.2312,-2.23,-2.2294,-2.2294,-2.2292,-2.2294,-2.2314,-2.2314,-2.2315,-2.2315,0,-2.1919,-2.1928,-2.1958,-2.1991,-2.2015,-2.2042,-2.2069,-2.2083,-2.2107,-2.213,-2.2164,-2.2185,-2.2227,-2.226,-2.2293,-2.231,-2.2316,-2.2319,-2.2324,-2.2319,-2.231,-2.2314,-2.2268,-2.2317,-2.2317,-2.2317,-2.2317,-2.2317,-2.1943,-2.1965,-2.1995,-2.2027,-2.2049,-2.2074,-2.2097,-2.2117,-2.2145,-2.2181,-2.2191,-2.2226,-2.2254,-2.2299,-2.2317,-2.2344,-2.2341,-2.235,-2.2352,-2.2353,-2.2353,-2.2307,-2.235,-2.235,-2.235,-2.235,-2.235,0,-2.198,-2.2,-2.203,-2.2067,-2.2092,-2.2096,-2.2125,-2.2146,-2.2176,-2.2202,-2.2229,-2.2267,-2.2298,-2.2323,-2.2355,-2.2371,-2.2374,-2.2379,-2.2377,-2.2381,-2.2354,-2.2345,-2.2375,-2.2375,-2.2375,-2.2375,-2.2375,-2.2375,-2.2003,-2.204,-2.2053,-2.2101,-2.212,-2.2155,-2.2171,-2.2193,-2.2214,-2.2256,-2.2282,-2.2298,-2.2323,-2.2356,-2.2385,-2.2391,-2.2402,-2.2405,-2.2412,-2.2386,-2.2383,-2.238,-2.2372,-2.2408,-2.2408,-2.2437,-2.2437,-2.2437]}]]